AO-07 1 07530U 74089B 19304.17345006 -.00000043 00000-0 15315-4 0 9993 2 07530 101.7639 270.5410 0012494 87.0771 342.5424 12.53640566 57377 UO-11 1 14781U 84021B 19303.82602209 .00000095 00000-0 17766-4 0 9996 2 14781 097.6034 322.1454 0007250 233.1021 126.9530 14.83116198897641 LO-19 1 20442U 90005G 19303.87646527 .00000008 00000-0 19031-4 0 9993 2 20442 098.6616 245.7228 0012774 111.8023 248.4521 14.32936283555537 HUBBLE 1 20580U 90037B 19303.73203513 .00000484 00000-0 18526-4 0 9996 2 20580 28.4701 45.5614 0002837 124.0082 11.0160 15.09289732421160 MET-2/21 1 22782U 93055A 19303.95998892 .00000088 00000-0 65998-4 0 9995 2 22782 82.5512 56.5099 0022862 158.8961 338.4199 13.83823046321436 AO-27 1 22825U 93061C 19304.39524018 -.00000010 00000-0 14243-4 0 9997 2 22825 98.9144 296.1773 0007925 333.5130 26.5645 14.30069849361206 IO-26 1 22826U 93061D 19303.94580336 -.00000013 00000-0 12780-4 0 9990 2 22826 098.9084 295.6917 0008297 322.3803 037.6798 14.30404001361092 FO-29 1 24278U 96046B 19303.90586054 -.00000031 00000-0 70284-5 0 9992 2 24278 098.5583 079.2369 0349403 252.0261 104.2509 13.53094320145708 NOAA-15 1 25338U 98030A 19304.49270777 .00000024 00000-0 28935-4 0 9998 2 25338 98.7391 325.4677 0009969 206.1151 153.9527 14.25937131116458 GO-32 1 25397U 98043D 19303.85579059 -.00000004 00000-0 17610-4 0 9998 2 25397 98.7005 242.4357 0001856 44.0020 316.1306 14.23673210106965 ISS 1 25544U 98067A 19304.56313583 .00001261 00000-0 29869-4 0 9999 2 25544 51.6466 45.0678 0006049 209.9243 271.0563 15.50235206196412 NO-44 1 26931U 01043C 19304.36479513 -.00000017 00000-0 25147-4 0 9996 2 26931 67.0532 16.1558 0007492 266.8606 93.1638 14.30556882944232 SO-50 1 27607U 02058C 19304.21393128 .00000048 00000-0 27548-4 0 9995 2 27607 64.5563 358.3089 0073841 230.3068 129.1509 14.75584517906889 CO-55 1 27844U 03031E 19304.02870484 .00000051 00000-0 42630-4 0 9997 2 27844 98.6850 310.2390 0009968 8.8057 351.3294 14.22202366847386 CO-57 1 27848U 03031J 19303.56658586 .00000028 00000-0 32379-4 0 9999 2 27848 098.6923 310.3105 0010092 021.8131 338.3475 14.21794271847133 RS-22 1 27939U 03042A 19304.29831532 .00000134 00000-0 32569-4 0 9996 2 27939 98.0603 77.6441 0013012 7.6448 352.4974 14.66813074860270 NOAA-18 1 28654U 05018A 19304.29977561 .00000096 00000-0 76941-4 0 9998 2 28654 99.0799 353.1820 0014768 156.1056 204.0804 14.12463030744526 CO-58 1 28895U 05043F 19303.90736481 .00000149 00000-0 37501-4 0 9992 2 28895 097.9789 082.1943 0015505 289.3518 070.6008 14.63704992746881 Falconsat-3 1 30776U 07006E 19304.13218871 .00003131 00000-0 86576-4 0 9998 2 30776 35.4354 312.3696 0003538 253.0625 106.9714 15.36708094701370 CO-65 1 32785U 08021C 19303.81089352 .00000224 00000-0 29752-4 0 9995 2 32785 097.5572 297.2519 0013176 171.6898 188.4540 14.88365048623564 AAUSAT2 1 32788U 08021F 19304.00088039 .00000438 00000-0 45108-4 0 9991 2 32788 97.4948 313.7808 0013264 107.2224 253.0450 14.94839883624980 DO-64 1 32789U 08021G 19303.87039116 .00001800 00000-0 12333-3 0 9995 2 32789 097.4499 349.3977 0012760 033.2788 326.9240 15.07216572627076 CO-66 1 32791U 08021J 19303.80420329 .00000380 00000-0 43874-4 0 9998 2 32791 097.5321 303.3352 0014145 145.7728 214.4405 14.90898122624016 RS-30 1 32953U 08025A 19304.29406631 .00000020 00000-0 75656-4 0 9990 2 32953 82.5032 61.0440 0019477 193.3798 166.6769 12.43092089519034 PRISM 1 33493U 09002B 19303.83890200 .00000260 00000-0 28231-4 0 9997 2 33493 98.1244 229.8895 0016417 97.0821 263.2267 14.96785087585215 NOAA-19 1 33591U 09005A 19304.50137763 .00000013 00000-0 32631-4 0 9997 2 33591 99.1897 298.9481 0014065 4.6878 355.4422 14.12381606552937 TISAT-1 1 36799U 10035E 19303.88967952 .00000280 00000-0 34326-4 0 9995 2 36799 098.1725 100.6447 0012409 012.3124 347.8394 14.91189663504565 JUGNU 1 37839U 11058B 19303.94144679 .00000326 00000-0 32130-4 0 9999 2 37839 019.9606 240.6663 0018838 007.7692 048.1657 14.12662968416152 SRMSAT 1 37841U 11058D 19304.18885727 .00000311 00000-0 25412-4 0 9994 2 37841 19.9725 298.7245 0011680 233.4092 210.4496 14.10641968415707 AO-71 1 37854U 11061E 19303.84954503 .00002737 00000-0 14540-3 0 9996 2 37854 101.7073 271.0697 0160168 027.2818 333.6695 15.06704691436748 HRBE 1 37855U 11061F 19304.37554779 .00002856 00000-0 14870-3 0 9995 2 37855 101.7197 269.1361 0172912 37.4715 323.8406 15.05711472437040 ALMASAT-1 1 38078U 12006B 19304.39215557 .00090396 65160-5 39299-3 0 9994 2 38078 69.4214 238.5764 0125385 50.3128 87.5401 15.73685161418597 HORYU-2 1 38340U 12025D 19304.09715641 .00000206 00000-0 38089-4 0 9998 2 38340 98.3148 346.6229 0012519 59.9104 300.3344 14.75767088400982 RS-40 1 38735U 12041C 19304.17168940 .00000047 00000-0 26961-3 0 9995 2 38735 82.4724 144.2598 0016673 305.0071 54.9465 12.42579836329258 BEESAT-3 1 39135U 13015F 19304.17811954 .00001238 00000-0 70058-4 0 9992 2 39135 64.8675 324.8526 0038460 287.5482 72.1443 15.17692152360656 BEESAT-2 1 39136U 13015G 19303.47541820 .00001113 00000-0 65383-4 0 9994 2 39136 64.8687 331.3320 0029628 292.6908 67.1086 15.17104749360467 ZACUBE-1 1 39417U 13066B 19303.94093006 .00000260 00000-0 39087-4 0 9996 2 39417 097.5623 309.8969 0057843 314.8813 044.7711 14.81169802320916 TRITON-1 1 39427U 13066M 19304.35877266 .00000239 00000-0 45654-4 0 9994 2 39427 97.6939 273.5364 0115205 94.2585 267.1796 14.67897559318097 GOMX-1 1 39430U 13066Q 19304.42800228 .00000159 00000-0 37748-4 0 9996 2 39430 97.7620 252.2096 0150714 188.9974 170.8524 14.59301758316259 LO-74 1 39440U 13066AA 19303.92285718 .00000295 00000-0 47826-4 0 9991 2 39440 097.6112 294.4942 0080500 009.9797 350.2989 14.75907281318570 AO-73 1 39444U 13066AE 19303.93446534 .00000326 00000-0 46431-4 0 9997 2 39444 097.5591 311.9611 0056840 308.0699 051.5395 14.81999981319226 SPROUT 1 39770U 14029E 19304.31137290 .00000726 00000-0 86183-4 0 9990 2 39770 97.8894 46.7791 0009217 10.8472 349.2948 14.87479992294844 DUCHIFAT-1 1 40021U 14033M 19304.33162546 .00000604 00000-0 67376-4 0 9998 2 40021 97.9267 229.3808 0012339 332.5310 27.5254 14.90721517291606 NANOSATCBR1 1 40024U 14033Q 19304.36270834 .00000389 00000-0 46281-4 0 9996 2 40024 97.9146 226.4805 0011703 336.7395 23.3291 14.89921431291490 EO-79 1 40025U 14033R 19303.83482874 .00000344 00000-0 42560-4 0 9994 2 40025 097.9053 223.2892 0012087 345.0131 015.0726 14.89009432290775 DTUSAT-2 1 40030U 14033W 19303.73338091 .00000333 00000-0 41726-4 0 9991 2 40030 097.8958 221.1156 0011503 341.1711 018.9079 14.88595348290685 EO-80 1 40032U 14033Y 19304.34900798 .00000333 00000-0 41828-4 0 9993 2 40032 97.8966 221.7303 0011379 339.9392 20.1376 14.88541133291271 ANTELSAT 1 40034U 14033AA 19304.17206540 .00000260 00000-0 45864-4 0 9993 2 40034 97.7403 165.5028 0059383 23.7215 336.6711 14.74154913288484 VELOX-1 1 40057U 14034E 19304.35932468 .00000381 00000-0 60732-4 0 9999 2 40057 98.2519 70.4832 0011343 156.9579 203.2148 14.77735859287654 DAURIA DX 1 1 40071U 14037C 19304.45115748 .00000132 00000-0 24443-4 0 9996 2 40071 98.4419 105.3553 0009003 147.1477 213.0304 14.81303659287206 UKUBE-1 1 40074U 14037F 19304.33973697 .00000403 00000-0 55470-4 0 9996 2 40074 98.4486 114.0611 0005232 129.3517 230.8153 14.84123979287625 HODOYOSHI-1 1 40299U 14070B 19304.42494623 .00000812 00000-0 36924-4 0 9996 2 40299 97.3407 21.3254 0011379 290.9875 131.2615 15.23496100276784 CHUBUSAT-1 1 40300U 14070C 19304.28457127 .00000949 00000-0 44124-4 0 9993 2 40300 97.3164 14.9889 0019213 306.0462 94.2600 15.22228274276499 QSAT-EOS 1 40301U 14070D 19304.31132405 .00002362 00000-0 93257-4 0 9999 2 40301 97.3178 18.7980 0023992 284.2349 115.8369 15.26262906276822 FIREBIRD FU3 1 40377U 15003B 19303.93757479 .00003033 00000-0 12110-3 0 9994 2 40377 099.1193 311.7614 0126048 003.7245 356.4892 15.19214514262291 FIREBIRD FU4 1 40378U 15003C 19304.25330657 .00003568 00000-0 14149-3 0 9993 2 40378 99.1198 312.2263 0126215 2.5602 357.6246 15.19229033262358 GRIFEX 1 40379U 15003D 19304.21241369 .00002627 00000-0 11382-3 0 9992 2 40379 99.1222 305.4181 0134919 23.3214 337.4056 15.15787591261965 NO-84 1 40654U 15025D 19304.34148022 .00015459 00000 0 20597-3 0 7620 2 40654 54.9896 277.6757 0127574 313.8315 45.2188 15.49303304133303 NO-83 1 40655U 15025E 19304.08667886 .00771570 35368-3 65984-3 0 9618 2 40655 54.9583 125.2702 0015465 32.5676 327.7068 16.12656303135088 DEORBITSAIL 1 40719U 15032E 19304.28765764 .00000457 00000-0 72241-4 0 9990 2 40719 97.8912 193.2591 0015164 229.4391 130.5500 14.76827257232129 NUDT-PHONESAT 1 40900U 15049B 19304.40361014 .00003042 00000-0 13124-3 0 9991 2 40900 97.4368 312.4463 0014463 73.3581 32.9320 15.23212422228162 XW-2A 1 40903U 15049E 19304.35862358 .00002714 00000-0 64953-4 0 9997 2 40903 97.3221 347.7976 0014133 24.6144 31.2735 15.42260547231001 XW-2C 1 40906U 15049H 19304.41112300 .00001023 00000-0 56876-4 0 9999 2 40906 97.4717 304.2984 0016387 91.2951 14.7555 15.15804539227401 XW-2D 1 40907U 15049J 19304.37191411 .00000750 00000-0 42409-4 0 9998 2 40907 97.4695 303.9421 0015760 89.5083 17.8869 15.16001580227418 LILACSAT-2 1 40908U 15049K 19304.31092846 .00000233 00000-0 16459-4 0 9997 2 40908 97.4839 302.5529 0017501 96.8800 30.5060 15.13877535227172 XW-2E 1 40909U 15049L 19304.39358256 .00001557 00000-0 79737-4 0 9994 2 40909 97.4624 307.0267 0015166 83.1216 22.6179 15.17991178227626 XW-2F 1 40910U 15049M 19304.27462394 .00001632 00000-0 84551-4 0 9996 2 40910 97.4655 306.0539 0016433 82.0049 48.6746 15.17503492227427 XW-2B 1 40911U 15049N 19304.41061906 .00001138 00000-0 62698-4 0 9996 2 40911 97.4719 304.6514 0015740 89.6965 16.4403 15.15932960227311 DCBB 1 40912U 15049P 19304.29590278 .00001677 00000-0 81201-4 0 9991 2 40912 97.4502 309.9283 0016382 65.4415 55.3348 15.19840405227752 TW-1C 1 40926U 15051B 19304.10502264 .00018366 00000-0 24181-3 0 9993 2 40926 97.1195 350.2092 0006212 218.0731 202.1161 15.58478045231072 TW-1A 1 40928U 15051D 19304.30062466 .00003768 00000-0 91937-4 0 9996 2 40928 97.1340 332.5939 0009488 311.2540 181.8875 15.41441609229903 IO-86 1 40931U 15052B 19302.40879780 .00000597 00000-0 -58682-5 0 9994 2 40931 5.9847 190.0824 0011407 235.6408 124.5275 14.76615343220917 LQSat 1 40958U 15057A 19304.26064710 .00000046 00000-0 14723-4 0 9998 2 40958 97.8850 9.7246 0018567 165.3367 194.8383 14.73094228218615 AO-85 1 40967U 15058D 19304.08704529 .00000348 00000 0 57115-4 0 8511 2 40967 64.7745 110.2728 0184060 158.5569 202.3380 14.76014293127577 ATHENOXAT-1 1 41168U 15077C 19304.26201824 .00002364 00000-0 89661-4 0 9991 2 41168 14.9884 309.7127 0011670 164.5561 195.5117 15.13878324214400 ChubuSat-2 1 41338U 16012B 19303.63058086 .00000387 00000-0 23417-4 0 9990 2 41338 031.0043 013.5445 0013875 349.7209 010.3141 15.00201052203047 ChubuSat-3 1 41339U 16012C 19304.38288391 .00000405 00000-0 24712-4 0 9998 2 41339 31.0116 6.6833 0013506 3.9370 356.1367 15.00373424203158 Horyu-4 1 41340U 16012D 19303.54294248 .00000579 00000-0 37172-4 0 9991 2 41340 31.0061 2.1303 0014071 16.7294 343.3804 15.01345634203143 OUFTI-1 1 41458U 16025C 19303.80640865 .00002206 00000-0 11565-3 0 9990 2 41458 98.1011 37.4745 0164287 266.0141 92.2291 15.06127547192759 e-st@r-II 1 41459U 16025D 19304.25428645 .00002043 00000-0 10820-3 0 9993 2 41459 98.1002 37.5269 0165450 265.9038 92.3264 15.05751068192793 AAUSAT4 1 41460U 16025E 19304.25680475 .00003088 00000-0 15719-3 0 9998 2 41460 98.0971 39.1241 0155537 257.3762 101.0010 15.07755634192940 LO-87 1 41557U 16033B 19304.28626972 .00001780 00000-0 68810-4 0 9997 2 41557 97.4142 30.9948 0013847 175.5769 184.5595 15.27489657190637 NuSat2 1 41558U 16033C 19304.34905977 .00002140 00000-0 77574-4 0 9998 2 41558 97.4176 32.5459 0012935 174.3378 185.8010 15.29410346190716 Lapan A3 1 41603U 16040E 19304.22776477 .00000240 00000-0 14359-4 0 9996 2 41603 97.3454 359.5022 0011851 291.8107 153.8503 15.19759000186173 Swayam 1 41607U 16040J 19304.12000330 .00001837 00000-0 79566-4 0 9991 2 41607 97.3503 3.5725 0011612 279.3236 80.6688 15.23606631186343 Pratham 1 41783U 16059A 19304.12894390 .00000062 00000-0 21269-4 0 9999 2 41783 98.0517 0.6310 0032675 323.0116 36.8833 14.63017162165200 AlSat 1N 1 41789U 16059G 19304.41277598 .00000091 00000-0 26211-4 0 9996 2 41789 98.0551 3.1998 0027307 310.8904 48.9934 14.64271710165364 ScatSat 1 41790U 16059H 19304.40563388 .00000030 00000-0 18503-4 0 9990 2 41790 98.1947 346.1383 0004419 272.3487 87.7203 14.50892313163867 TY-1 1 41844U 16066D 19304.40257722 .00001282 00000-0 54958-4 0 9994 2 41844 97.4056 310.2022 0016788 74.6934 31.0497 15.24466875165214 Pegasus-1 1 41846U 16066F 19303.72026098 .00000277 00000-0 52664-4 0 9995 2 41846 98.6968 345.9621 0367131 199.7346 158.9318 14.37638775155817 CAS-2T 1 41847U 16066G 19303.76128589 .00000103 00000-0 26187-4 0 9997 2 41847 98.6904 346.5266 0365643 195.8406 163.1095 14.38015368156268 EO-88 1 42017U 17008BX 19303.88944800 .00001965 00000-0 79562-4 0 9991 2 42017 097.3894 009.5215 0007687 064.3459 295.8572 15.25845718150388 nSIGHT1 1 42726U 98067MF 19304.31867294 .00055608 00000-0 32616-3 0 9993 2 42726 51.6339 337.4652 0005393 359.2538 0.8454 15.77713583139028 CAS-4B 1 42759U 17034B 19304.26015615 .00000401 00000-0 37986-4 0 9997 2 42759 43.0182 211.6554 0011450 13.2534 129.5572 15.09670090131171 CAS-4A 1 42761U 17034D 19304.21426003 .00000536 00000-0 46106-4 0 9995 2 42761 43.0185 211.3589 0011683 14.2099 117.0471 15.09748902131164 UCLSat 1 42765U 17036A 19303.84556819 .00001609 00000-0 71264-4 0 9993 2 42765 097.3354 358.8882 0012993 115.0451 245.2136 15.22994968131474 NIUSat 1 42766U 17036B 19304.15614424 .00001200 00000-0 56506-4 0 9995 2 42766 97.3349 357.2762 0017252 107.4292 252.8832 15.21311414130676 LituanicaSAT 2 1 42768U 17036D 19304.20779194 .00002972 00000-0 12810-3 0 9995 2 42768 97.3392 358.9354 0016657 106.1979 254.1092 15.23214277130783 Aalto 1 1 42775U 17036L 19304.09789500 .00000952 00000-0 45223-4 0 9993 2 42775 97.3334 357.5637 0015602 107.1454 253.1492 15.21505172130647 URSA MAIOR 1 42776U 17036M 19303.71761105 .00001044 00000-0 49093-4 0 9995 2 42776 097.3346 357.3863 0015412 108.2071 252.0844 15.21651797130594 Max Valier Sat 1 42778U 17036P 19303.77144682 .00001166 00000-0 53648-4 0 9994 2 42778 097.3389 358.3821 0013965 111.4796 248.7931 15.22216143130636 Pegasus 1 42784U 17036V 19304.15530109 .00001417 00000-0 63593-4 0 9996 2 42784 97.3358 358.9668 0013551 114.8537 245.4110 15.22729678130720 NUDATSat 1 42787U 17036Y 19304.19549711 .00002829 00000-0 12013-3 0 9990 2 42787 97.3380 359.9192 0012975 112.0815 248.1797 15.23811497130621 SUCHAI 1 1 42788U 17036Z 19304.38701402 .00001882 00000-0 82385-4 0 9997 2 42788 97.3360 359.5875 0013194 113.2189 247.0439 15.23190145130851 SKCUBE 1 42789U 17036AA 19303.82098494 .00001642 00000-0 72512-4 0 9991 2 42789 097.3359 358.9490 0013000 115.0568 245.2020 15.23068544130687 VZLUSAT 1 1 42790U 17036AB 19303.78877307 .00002001 00000-0 85872-4 0 9999 2 42790 097.3376 359.5207 0012603 114.0249 246.2309 15.23797336130717 VENTA 1 1 42791U 17036AC 19303.72849560 .00001498 00000-0 66397-4 0 9994 2 42791 097.3358 358.9089 0012648 115.6115 244.6431 15.23073167130668 Robusta 1B 1 42792U 17036AD 19303.80244048 .00001669 00000-0 73257-4 0 9997 2 42792 97.3361 359.1140 0012570 115.4476 244.8063 15.23246532130702 D-SAT 1 42794U 17036AF 19303.88406985 .00000277 00000-0 29179-4 0 9995 2 42794 097.5244 342.5757 0127674 054.7701 306.5390 14.91157705128336 TechnoSat 1 42829U 17042E 19304.30373470 .00000333 00000-0 39033-4 0 9994 2 42829 97.5454 191.4523 0013660 337.8560 22.2067 14.91016263124991 QIKCOM-1 1 42983U 98067NF 19304.36151961 .00005272 00000-0 70928-4 0 9991 2 42983 51.6405 23.7595 0003497 274.2501 85.8092 15.59715485114350 AO-91 1 43017U 17073E 19304.33504331 .00000785 00000-0 65696-4 0 9998 2 43017 97.7217 220.4220 0259279 80.0029 283.0334 14.78669823105154 EcAMSat 1 43019U 98067NG 19304.35691398 .00009820 00000-0 11280-3 0 9992 2 43019 51.6417 16.2849 0003792 258.0337 102.0233 15.62755258196779 PICSAT 1 43132U 18004X 19304.20034129 .00001915 00000-0 82305-4 0 9992 2 43132 97.4751 11.6768 0010863 136.2466 223.9633 15.23850508 99983 AO-92 1 43137U 18004AC 19303.87537767 .00001329 00000-0 58329-4 0 9993 2 43137 097.4743 011.2925 0010343 138.5880 221.6143 15.23678567099937 TianYi 2 1 43155U 18008A 19304.29054722 .00001012 00000-0 63748-4 0 9999 2 43155 97.4750 13.9272 0016653 217.8480 227.7064 15.11303067 98155 Zhou Enlai 1 43156U 18008B 19304.37796477 .00001142 00000-0 72426-4 0 9996 2 43156 97.4804 13.8883 0013880 213.9096 212.7549 15.10818312 98135 TianYi 6 1 43158U 18008D 19304.25707339 .00001447 00000-0 91802-4 0 9991 2 43158 97.4731 13.1022 0012838 214.5968 188.8791 15.10393850 98071 S-Net G 1 43186U 18014G 19303.73980191 .00000193 00000-0 21969-4 0 9994 2 43186 97.7002 210.1755 0009752 278.4531 81.5585 14.96696130 95183 S-Net H 1 43187U 18014H 19304.34131688 .00000256 00000-0 27521-4 0 9992 2 43187 97.7000 210.7526 0009722 275.8224 84.1889 14.96696672 95278 S-Net J 1 43188U 18014J 19303.73944447 .00000179 00000-0 20789-4 0 9993 2 43188 97.7003 210.1813 0009744 278.5165 81.4953 14.96695880 95185 S-Net K 1 43189U 18014K 19304.34149366 .00000256 00000-0 27505-4 0 9998 2 43189 97.6999 210.7495 0009706 275.7795 84.2320 14.96696035 93828 FMN 1 1 43192U 18015A 19304.43556120 .00003277 00000-0 13497-3 0 9993 2 43192 97.4163 70.6486 0016234 174.7130 271.8820 15.24704600 96845 Shaonian Xing 1 43199U 18015H 19304.40493985 .00002430 00000-0 99649-4 0 9990 2 43199 97.3947 69.4544 0016808 185.2969 259.4537 15.25105098 96895 1KUNS-PF 1 43466U 98067NP 19304.35075562 .00045371 00000-0 34448-3 0 9999 2 43466 51.6360 8.5815 0002024 354.8162 5.2815 15.71853818 84055 UBAKUSAT 1 43467U 98067NQ 19304.41516353 .00024404 00000-0 23872-3 0 9998 2 43467 51.6371 16.5441 0001121 248.9056 111.1820 15.65996480 83962 Irazu 1 43468U 98067NR 19304.19231603 .00069644 00000-0 40427-3 0 9996 2 43468 51.6374 2.2007 0003080 9.4625 350.6433 15.77868119184113 EnduroSat One 1 43551U 98067NZ 19304.39825919 .00031172 00000-0 29174-3 0 9991 2 43551 51.6372 18.6810 0005431 308.7783 51.2728 15.66943030 74167 EQUISat 1 43552U 98067PA 19304.38402140 .00024430 00000-0 24973-3 0 9999 2 43552 51.6388 21.6315 0005666 302.9396 57.1054 15.64872494 74086 UiTMSat 1 1 43589U 98067PD 19304.23589074 .00028036 00000-0 27967-3 0 9997 2 43589 51.6360 22.8019 0005240 311.9523 48.1025 15.65408935 69796 Maya 1 1 43590U 98067PE 19303.46346202 .00020725 00000-0 20861-3 0 9990 2 43590 51.6367 26.6503 0005291 309.2061 50.8464 15.65376859 69604 Bhutan 1 1 43591U 98067PF 19303.44906627 .00020558 00000-0 20646-3 0 9997 2 43591 51.6374 26.5897 0005459 309.5131 50.5381 15.65439892 69607 SiriusSat 1 1 43595U 98067PG 19304.27910500 .00025287 00000-0 26282-3 0 9994 2 43595 51.6364 24.5993 0002825 277.5381 82.5293 15.64441592 68885 SiriusSat 2 1 43596U 98067PH 19303.68471951 .00018346 00000-0 19395-3 0 9996 2 43596 051.6375 028.1804 0003322 272.9071 087.1543 15.64233363068780 Tanusha-3 1 43597U 98067PJ 19304.08900859 .00031913 00000-0 29894-3 0 9996 2 43597 51.6355 22.5391 0003309 299.1109 60.9556 15.66917928 68899 SurfSat 1 43614U 18070B 19304.36759179 .00004254 00000-0 11321-3 0 9994 2 43614 93.0373 59.3145 0017419 139.2161 221.0400 15.38104848 63108 CP-7 DAVE 1 43615U 18070C 19303.86067720 .00003836 00000-0 10244-3 0 9991 2 43615 093.0374 059.1027 0017551 140.4803 219.7734 15.37999502063024 ELFIN-B 1 43616U 18070D 19304.32615417 .00006532 00000-0 16933-3 0 9993 2 43616 93.0336 59.2021 0018162 142.1348 218.1187 15.38869239 63119 ELFIN-A 1 43617U 18070E 19304.31503464 .00006794 00000-0 17570-3 0 9999 2 43617 93.0389 59.5180 0017432 138.9572 221.2998 15.38956948 63117 STARS-Me Mother 1 43640U 98067PQ 19303.68446838 .00011634 00000-0 14405-3 0 9992 2 43640 051.6380 034.1731 0004600 244.0228 116.0292 15.60566659060638 CubeBel 1 1 43666U 18083E 19304.38665985 .00001568 00000-0 80692-4 0 9991 2 43666 97.5115 327.9029 0016725 81.4905 14.9077 15.17801012 55717 Changshagaoxin 1 43669U 18083H 19304.35741668 .00000882 00000-0 48039-4 0 9991 2 43669 97.4980 326.7697 0012522 75.9537 284.3088 15.16950820 55645 Ten-Koh 1 43677U 18084G 19304.18509006 .00000226 00000-0 29188-4 0 9996 2 43677 97.8644 57.1386 0015738 193.3584 166.7219 14.90208928 54648 PO-101 1 43678U 18084H 19304.31226328 .00000157 00000-0 21378-4 0 9991 2 43678 97.8639 58.0794 0008953 212.6266 147.4392 14.91582634 54715 IRVINE 01 1 43693U 18088D 19304.23612962 .00003444 00000-0 14895-3 0 9993 2 43693 85.0383 229.2346 0020613 61.3469 298.9842 15.21866331 53829 QO-100 1 43700U 18090A 19303.84910450 .00000134 00000-0 00000-0 0 9997 2 43700 000.0114 226.7106 0001252 005.7702 137.8603 01.00272205003399 Reaktor Hello World 1 43743U 18096AA 19304.25858108 .00001915 00000-0 75133-4 0 9998 2 43743 97.4480 14.0372 0017149 217.3634 227.8485 15.26874239 51267 MinXSS-2 1 43758U 18099A 19304.17809161 .00000001 00000-0 53176-5 0 9992 2 43758 97.7335 14.5620 0014478 235.6752 124.3099 14.95494400 49534 AO-95 1 43770U 18099N 19304.18550805 .00000027 00000-0 77961-5 0 9991 2 43770 97.7333 14.2532 0013404 242.7595 117.2260 14.94838750 49515 RANGE-B 1 43772U 18099Q 19304.16398618 .00000599 00000-0 60004-4 0 9996 2 43772 97.7393 14.5012 0013116 228.5945 131.4149 14.94974851 49506 RANGE-A 1 43773U 18099R 19304.17576671 -.00000091 00000-0 -30354-5 0 9990 2 43773 97.7281 14.0490 0012493 228.8098 131.2046 14.94856982 49505 MOVE-II 1 43780U 18099Y 19303.72335499 .00000396 00000-0 41305-4 0 9992 2 43780 97.7325 13.8820 0012488 241.6764 118.3197 14.95168934 49432 SNUSat 2 1 43782U 18099AA 19303.65339800 .00000006 00000-0 57779-5 0 9997 2 43782 097.7329 013.8567 0011760 230.2391 129.7794 14.95116027049433 SnugLite 1 43784U 18099AC 19304.17133838 .00000100 00000-0 14350-4 0 9992 2 43784 97.7296 14.2604 0013899 237.5822 122.4055 14.95206594 49528 ITASat 1 1 43786U 18099AE 19303.76779541 .00000180 00000-0 21607-4 0 9996 2 43786 97.7351 14.0939 0013962 237.8620 122.1247 14.95201271 49461 EAGLET 1 1 43790U 18099AJ 19303.88501945 .00000776 00000-0 75061-4 0 9999 2 43790 097.7340 014.3616 0012170 241.8291 118.1701 14.95575279049189 ESEO 1 43792U 18099AL 19304.28555204 .00000586 00000-0 58057-4 0 9998 2 43792 97.7318 14.6778 0012002 237.1533 122.8533 14.95539737 49307 CSIM 1 43793U 18099AM 19303.78384178 .00000189 00000-0 22123-4 0 9997 2 43793 97.7288 14.0805 0012089 236.5365 123.4701 14.95810443 49209 Astrocast 0.1 1 43798U 18099AS 19303.76834622 .00000073 00000-0 11699-4 0 9992 2 43798 97.7330 14.3050 0011437 220.5408 139.4962 14.95775140 49462 JO-97 1 43803U 18099AX 19304.34253487 .00000822 00000-0 79660-4 0 9992 2 43803 97.7306 14.5413 0014042 235.9742 124.0146 14.95345242 49542 Suomi 100 1 43804U 18099AY 19303.73995735 .00000695 00000-0 68137-4 0 9999 2 43804 97.7305 13.9431 0014087 238.3729 121.6118 14.95340274 49469 Al Farabi 2 1 43805U 18099AZ 19304.33176720 .00000568 00000-0 56525-4 0 9999 2 43805 97.7307 14.5584 0014229 236.4714 123.5148 14.95416834 49559 PWSat 2 1 43814U 18099BJ 19303.81063337 .00027721 00000-0 20460-2 0 9997 2 43814 97.7753 16.8319 0011189 218.9654 141.0729 15.03174574 48972 CHOMPTT 1 43855U 18104G 19304.10968577 .00001648 00000-0 69017-4 0 9995 2 43855 85.0366 327.5713 0017283 172.0121 188.1398 15.22573201 48477 ISAT 1 43879U 18111D 19304.36617193 .00000867 00000-0 82279-4 0 9999 2 43879 97.7093 210.3561 0011781 298.1469 61.8561 14.96071745 44079 UWE-4 1 43880U 18111E 19303.78117545 .00000111 00000-0 14983-4 0 9991 2 43880 97.7103 209.9330 0011111 301.8432 58.1707 14.96312510 43999 Sparrow 1 43881U 18111F 19304.30665079 .00000569 00000-0 55377-4 0 9990 2 43881 97.7109 210.4887 0011057 298.4484 61.5623 14.96361461 44071 Lume 1 1 43908U 18111AJ 19303.77247084 .00001309 00000-0 55726-4 0 9993 2 43908 97.2788 205.2959 0020010 236.0733 123.8603 15.24566543 46875 FO-98 1 43933U 19003B 19304.41642656 .00001039 00000-0 48598-4 0 9997 2 43933 97.2655 357.5279 0017302 336.6637 80.9752 15.21792887 43540 FO-99 1 43937U 19003F 19304.38439904 .00001878 00000-0 80289-4 0 9991 2 43937 97.2616 358.1287 0023188 320.3247 95.4737 15.23841362 43597 Delphini 1 1 44030U 98067PW 19304.27160105 .00020443 00000-0 26155-3 0 9995 2 44030 51.6380 36.6050 0004504 297.2710 62.7824 15.59178960 42520 MYSat 1 1 44045U 18092F 19304.21094826 .00004275 00000-0 13280-3 0 9991 2 44045 51.6439 79.2320 0011626 205.2520 154.7890 15.35495319 39902 AstroCast 0.2 1 44083U 19018F 19304.23983056 .00000711 00000-0 34666-4 0 9999 2 44083 97.4534 3.0554 0012383 256.2091 103.7767 15.21499619 32375 AISTechSat 3 1 44103U 19018AB 19304.40439906 .00001265 00000-0 57080-4 0 9991 2 44103 97.4415 3.2634 0011850 275.4185 145.5274 15.22806234 32421 AISat 1 1 44104U 19018AC 19304.28288249 .00001091 00000-0 37790-4 0 9993 2 44104 97.4945 7.1617 0057480 310.7645 48.8614 15.30663172 32599 Raavana-1 1 44329U 98067QE 19303.71478629 .00010495 00000-0 16796-3 0 9993 2 44329 051.6414 047.1638 0006607 221.3251 138.7240 15.53716529021089 Uguisu 1 44330U 98067QF 19303.65392661 .00010055 00000-0 16150-3 0 9995 2 44330 051.6415 047.5068 0006582 219.4671 140.5841 15.53669987021059 NepaliSat-1 1 44331U 98067QG 19303.71176654 .00010512 00000-0 16801-3 0 9996 2 44331 51.6417 47.1444 0006653 222.6790 137.3685 15.53750448 21078 Prox-1 1 44339U 19036A 19304.16833822 .00001016 00000-0 19268-3 0 9999 2 44339 23.9987 120.5633 0010946 158.0668 202.0226 14.52714334 18600 OBJECT H 1 44346U 19036H 19303.54526445 .00011776 00000-0 18496-3 0 9994 2 44346 28.5236 93.4999 0383756 11.6281 349.2884 14.98021057 19086 OBJECT J 1 44347U 19036J 19303.54116346 .00030143 00000-0 46541-3 0 9991 2 44347 28.5286 90.6207 0362403 16.1542 345.0257 15.03045185 19116 OBJECT K 1 44348U 19036K 19303.64400371 .00009274 00000-0 14286-3 0 9999 2 44348 28.5182 92.3037 0383721 13.3337 347.7021 14.98259336 19104 Armadillo 1 44352U 19036P 19303.53810651 .00012867 00000-0 20212-3 0 9996 2 44352 028.5322 092.5609 0378498 012.7192 348.2614 14.99131921019046 NO-104 1 44354U 19036R 19303.44790142 .00008162 00000-0 12275-3 0 9993 2 44354 28.5310 92.7599 0381805 12.0029 348.9373 14.99033438 19068 NO-103 1 44355U 19036S 19303.45783489 .00014472 00000-0 21933-3 0 9993 2 44355 28.5312 91.8745 0375455 13.4823 347.5493 15.00570189 19076 Oculus-ASR 1 44356U 19036T 19303.76408745 .00039458 00000-0 55634-3 0 9993 2 44356 028.5240 086.4785 0358741 022.1499 339.4177 15.05760700019160 CP9 1 44360U 19036X 19303.50230987 .00025638 00000-0 34982-3 0 9999 2 44360 28.5166 89.0791 0373696 18.2558 343.1053 15.03351578 18987 Move-IIb 1 44398U 19038N 19303.86119176 .00001504 00000-0 91269-4 0 9995 2 44398 097.5049 263.5795 0024774 198.4413 161.5922 15.11804425017730 SONATE 1 44400U 19038Q 19303.86108728 .00000593 00000-0 38423-4 0 9990 2 44400 097.5066 263.5923 0024787 196.5160 163.5265 15.11724163017730 BeeSat 9 1 44412U 19038AC 19304.37907715 .00001157 00000-0 71014-4 0 9993 2 44412 97.5061 264.1230 0022235 200.2404 159.7947 15.11911680 17507 JAISAT-1 1 44419U 19038F 19303.87746725 .00000930 00000-0 57062-4 0 9991 2 44419 97.5062 263.7202 0021045 201.7121 158.3219 15.12398615 17740 LightSail-2 1 44420U 19036AC 19303.53283834 .00007235 00000-0 16517-2 0 9994 2 44420 24.0056 124.3500 0011703 147.0755 213.0482 14.53489855 16659 Taurus 1 1 44530U 19059C 19304.34457400 -.00000180 00000-0 -38362-4 0 9991 2 44530 98.5841 18.1321 0015531 126.9698 233.2917 14.45256277 7103 /EX